User: anonymous   Login
Location: G�kdere
(37.0328°N, 30.9000°E)
Time: 13:31:37
(UTC+00:00)
Language:

Cosmos 2084 Rocket - Orbit

View from above orbital plane
View from above orbital plane
View from above satellite
View from above satellite

Ground track
Ground track

The orbit data is extracted from the following two-line orbital elements,

1 20666U 90055D   21138.05722810  .00000106  00000-0  27673-4 0  9995
2 20666  62.7866  46.4490 0094457  31.4836 329.1862 14.92488729674707
Epoch (UTC): 18 May 2021 01:22:24
Eccentricity: 0.0094457
inclination: 62.7866°
perigee height: 524 km
apogee height: 656 km
right ascension of ascending node: 46.4490°
argument of perigee: 31.4836°
revolutions per day: 14.92488729
mean anomaly at epoch: 329.1862°
orbit number at epoch: 67470

The dashed part of the orbit path shows where the satellite is in the earth's shadow,  

DLR